| time (UTC) | temp F | wind direction | speed MPH | gust MPH | rain 1hr in | rain 24hr in | rain mn in | humidity % | barometer mb |
| 20260905155114 | 74 | 29 | 13.0 | 16.0 | 0.00 | 0.00 | 0.00 | 67 | 1017.4 |
| 20260905154608 | 74 | 29 | 13.0 | 16.0 | 0.00 | 0.00 | 0.00 | 68 | 1017.5 |
| 20260905154104 | 74 | 29 | 13.0 | 16.0 | 0.00 | 0.00 | 0.00 | 70 | 1017.3 |
| 20260905153559 | 73 | 29 | 13.0 | 16.0 | 0.00 | 0.00 | 0.00 | 70 | 1017.5 |
| 20260905153054 | 72 | 29 | 13.0 | 16.0 | 0.00 | 0.00 | 0.00 | 70 | 1017.6 |
| 20260905152549 | 72 | 29 | 13.0 | 16.0 | 0.00 | 0.00 | 0.00 | 73 | 1017.7 |
| 20260905152044 | 73 | 29 | 13.0 | 16.0 | 0.00 | 0.00 | 0.00 | 76 | 1017.6 |
| 20260905151539 | 74 | 29 | 13.0 | 16.0 | 0.00 | 0.00 | 0.00 | 75 | 1017.6 |
| 20260905151035 | 74 | 29 | 13.0 | 16.0 | 0.00 | 0.00 | 0.00 | 69 | 1017.8 |
| 20260905150530 | 72 | 29 | 13.0 | 16.0 | 0.00 | 0.00 | 0.00 | 72 | 1017.6 |
| 20260905150027 | 72 | 29 | 13.0 | 16.0 | 0.00 | 0.00 | 0.00 | 71 | 1017.6 |
| 20260905145521 | 73 | 29 | 13.0 | 16.0 | 0.00 | 0.00 | 0.00 | 73 | 1017.6 |
| 20260905145021 | 72 | 29 | 13.0 | 16.0 | 0.00 | 0.00 | 0.00 | 79 | 1017.5 |
| 20260905144516 | 71 | 29 | 13.0 | 16.0 | 0.00 | 0.00 | 0.00 | 76 | 1017.7 |
| 20260905144015 | 71 | 29 | 13.0 | 16.0 | 0.00 | 0.00 | 0.00 | 78 | 1017.4 |
| 20260905143514 | 70 | 29 | 13.0 | 16.0 | 0.00 | 0.00 | 0.00 | 78 | 1017.5 |
| 20260905143009 | 71 | 29 | 13.0 | 16.0 | 0.00 | 0.00 | 0.00 | 80 | 1017.5 |
| 20260905142508 | 70 | 29 | 13.0 | 16.0 | 0.00 | 0.00 | 0.00 | 80 | 1017.4 |
| 20260905142004 | 71 | 29 | 13.0 | 16.0 | 0.00 | 0.00 | 0.00 | 81 | 1017.3 |
| 20260905141503 | 70 | 29 | 13.0 | 16.0 | 0.00 | 0.00 | 0.00 | 84 | 1017.4 |
| 20260905141000 | 69 | 29 | 13.0 | 16.0 | 0.00 | 0.00 | 0.00 | 84 | 1017.4 |
| 20260905140454 | 68 | 29 | 13.0 | 16.0 | 0.00 | 0.00 | 0.00 | 84 | 1017.6 |
| 20260905135953 | 68 | 29 | 13.0 | 16.0 | 0.00 | 0.00 | 0.00 | 85 | 1017.5 |
| 20260905135449 | 68 | 29 | 13.0 | 16.0 | 0.00 | 0.00 | 0.00 | 84 | 1017.4 |
| 20260905134944 | 68 | 29 | 13.0 | 16.0 | 0.00 | 0.00 | 0.00 | 85 | 1017.5 |
| 20260905134443 | 67 | 29 | 13.0 | 16.0 | 0.00 | 0.00 | 0.00 | 85 | 1017.4 |
| 20260905133942 | 67 | 29 | 13.0 | 16.0 | 0.00 | 0.00 | 0.00 | 87 | 1017.4 |
| 20260905133437 | 67 | 29 | 13.0 | 16.0 | 0.00 | 0.00 | 0.00 | 87 | 1017.6 |
| 20260905132932 | 66 | 29 | 13.0 | 16.0 | 0.00 | 0.00 | 0.00 | 90 | 1017.8 |
| 20260905132427 | 65 | 29 | 13.0 | 16.0 | 0.00 | 0.00 | 0.00 | 93 | 1017.8 |
| 20260905131922 | 65 | 29 | 13.0 | 16.0 | 0.00 | 0.00 | 0.00 | 93 | 1017.7 |
| 20260905131418 | 65 | 29 | 13.0 | 16.0 | 0.00 | 0.00 | 0.00 | 92 | 1017.8 |
| 20260905130912 | 65 | 29 | 13.0 | 16.0 | 0.00 | 0.00 | 0.00 | 93 | 1017.8 |
| 20260905130412 | 65 | 29 | 13.0 | 16.0 | 0.00 | 0.00 | 0.00 | 92 | 1017.7 |
| 20260905125906 | 65 | 29 | 13.0 | 16.0 | 0.00 | 0.00 | 0.00 | 92 | 1017.8 |
| 20260905125401 | 65 | 29 | 13.0 | 16.0 | 0.00 | 0.00 | 0.00 | 92 | 1017.7 |
| 20260905124857 | 65 | 29 | 13.0 | 16.0 | 0.00 | 0.00 | 0.00 | 92 | 1017.6 |
| 20260905124353 | 65 | 29 | 13.0 | 16.0 | 0.00 | 0.00 | 0.00 | 93 | 1017.6 |
| 20260905123853 | 65 | 29 | 13.0 | 16.0 | 0.00 | 0.00 | 0.00 | 92 | 1017.7 |
| 20260905123350 | 64 | 29 | 13.0 | 16.0 | 0.00 | 0.00 | 0.00 | 92 | 1017.9 |
| 20260905122850 | 64 | 29 | 13.0 | 16.0 | 0.00 | 0.00 | 0.00 | 94 | 1017.9 |
| 20260905122349 | 64 | 29 | 13.0 | 16.0 | 0.00 | 0.00 | 0.00 | 96 | 1018.0 |
| 20260905121844 | 63 | 29 | 13.0 | 16.0 | 0.00 | 0.00 | 0.00 | 97 | 1017.6 |
| 20260905121341 | 62 | 29 | 13.0 | 16.0 | 0.00 | 0.00 | 0.00 | 98 | 1017.7 |
| 20260905120839 | 61 | 29 | 13.0 | 16.0 | 0.00 | 0.00 | 0.00 | 99 | 1017.6 |
| 20260905120334 | 61 | 29 | 13.0 | 16.0 | 0.00 | 0.00 | 0.00 | 99 | 1017.8 |
| 20260905115830 | 60 | 29 | 13.0 | 16.0 | 0.00 | 0.00 | 0.00 | 99 | 1017.7 |
| 20260905115329 | 60 | 29 | 13.0 | 16.0 | 0.00 | 0.00 | 0.00 | 99 | 1017.9 |
| 20260905114829 | 60 | 29 | 13.0 | 16.0 | 0.00 | 0.00 | 0.00 | 99 | 1017.7 |
| 20260905114328 | 60 | 29 | 13.0 | 16.0 | 0.00 | 0.00 | 0.00 | 99 | 1017.6 |
| 20260905113827 | 59 | 29 | 13.0 | 16.0 | 0.00 | 0.00 | 0.00 | 99 | 1017.8 |
| 20260905113323 | 59 | 29 | 13.0 | 16.0 | 0.00 | 0.00 | 0.00 | 99 | 1017.6 |
| 20260905112819 | 59 | 29 | 13.0 | 16.0 | 0.00 | 0.00 | 0.00 | 99 | 1017.4 |
| 20260905112313 | 59 | 29 | 13.0 | 16.0 | 0.00 | 0.00 | 0.00 | 99 | 1017.2 |
| 20260905111809 | 59 | 29 | 13.0 | 16.0 | 0.00 | 0.00 | 0.00 | 98 | 1017.3 |
| 20260905111308 | 59 | 29 | 13.0 | 16.0 | 0.00 | 0.00 | 0.00 | 98 | 1017.2 |
| 20260905110803 | 59 | 29 | 13.0 | 16.0 | 0.00 | 0.00 | 0.00 | 98 | 1017.1 |
| 20260905110301 | 59 | 29 | 13.0 | 16.0 | 0.00 | 0.00 | 0.00 | 98 | 1017.1 |
| 20260905105758 | 59 | 29 | 13.0 | 16.0 | 0.00 | 0.00 | 0.00 | 98 | 1017.1 |
| 20260905105256 | 59 | 29 | 13.0 | 16.0 | 0.00 | 0.00 | 0.00 | 98 | 1017.2 |
| 20260905104751 | 59 | 29 | 13.0 | 16.0 | 0.00 | 0.00 | 0.00 | 98 | 1017.1 |
| 20260905104248 | 59 | 29 | 13.0 | 16.0 | 0.00 | 0.00 | 0.00 | 98 | 1016.9 |
| 20260905103747 | 59 | 29 | 13.0 | 16.0 | 0.00 | 0.00 | 0.00 | 98 | 1016.9 |
| 20260905103243 | 59 | 29 | 13.0 | 16.0 | 0.00 | 0.00 | 0.00 | 98 | 1017.0 |
| 20260905102738 | 59 | 29 | 13.0 | 16.0 | 0.00 | 0.00 | 0.00 | 98 | 1017.0 |
| 20260905102235 | 59 | 29 | 13.0 | 16.0 | 0.00 | 0.00 | 0.00 | 98 | 1016.8 |
| 20260905101734 | 59 | 29 | 13.0 | 16.0 | 0.00 | 0.00 | 0.00 | 98 | 1016.7 |
| 20260905101232 | 59 | 29 | 13.0 | 16.0 | 0.00 | 0.00 | 0.00 | 98 | 1016.7 |
| 20260905100728 | 60 | 29 | 13.0 | 16.0 | 0.00 | 0.00 | 0.00 | 98 | 1016.7 |
| 20260905100224 | 60 | 29 | 13.0 | 16.0 | 0.00 | 0.00 | 0.00 | 98 | 1016.8 |
| 20260905095723 | 60 | 29 | 13.0 | 16.0 | 0.00 | 0.00 | 0.00 | 98 | 1016.7 |
| 20260905095217 | 60 | 29 | 13.0 | 16.0 | 0.00 | 0.00 | 0.00 | 98 | 1016.9 |
| 20260905094712 | 60 | 29 | 13.0 | 16.0 | 0.00 | 0.00 | 0.00 | 98 | 1016.7 |
| 20260905094207 | 60 | 29 | 13.0 | 16.0 | 0.00 | 0.00 | 0.00 | 97 | 1016.8 |
| 20260905093707 | 60 | 29 | 13.0 | 16.0 | 0.00 | 0.00 | 0.00 | 97 | 1016.8 |
| 20260905093203 | 60 | 29 | 13.0 | 16.0 | 0.00 | 0.00 | 0.00 | 97 | 1016.8 |
| 20260905092658 | 60 | 29 | 13.0 | 16.0 | 0.00 | 0.00 | 0.00 | 97 | 1016.6 |
| 20260905092154 | 60 | 29 | 13.0 | 16.0 | 0.00 | 0.00 | 0.00 | 97 | 1016.8 |
| 20260905091653 | 60 | 29 | 13.0 | 16.0 | 0.00 | 0.00 | 0.00 | 97 | 1016.6 |
| 20260905091154 | 60 | 29 | 13.0 | 16.0 | 0.00 | 0.00 | 0.00 | 96 | 1016.5 |
| 20260905090653 | 60 | 29 | 13.0 | 16.0 | 0.00 | 0.00 | 0.00 | 96 | 1016.6 |
| 20260905090149 | 61 | 29 | 13.0 | 16.0 | 0.00 | 0.00 | 0.00 | 96 | 1016.5 |
| 20260905085647 | 61 | 29 | 13.0 | 16.0 | 0.00 | 0.00 | 0.00 | 95 | 1016.6 |
| 20260905085143 | 61 | 29 | 13.0 | 16.0 | 0.00 | 0.00 | 0.00 | 95 | 1016.7 |
| 20260905084642 | 62 | 29 | 13.0 | 16.0 | 0.00 | 0.00 | 0.00 | 95 | 1016.7 |
| 20260905084137 | 62 | 29 | 13.0 | 16.0 | 0.00 | 0.00 | 0.00 | 94 | 1016.7 |
| 20260905083632 | 63 | 29 | 13.0 | 16.0 | 0.00 | 0.00 | 0.00 | 92 | 1016.8 |
| 20260905083128 | 63 | 29 | 13.0 | 16.0 | 0.00 | 0.00 | 0.00 | 91 | 1016.6 |
| 20260905082624 | 63 | 29 | 13.0 | 16.0 | 0.00 | 0.00 | 0.00 | 91 | 1016.8 |
| 20260905082119 | 63 | 29 | 13.0 | 16.0 | 0.00 | 0.00 | 0.00 | 91 | 1016.6 |
| 20260905081613 | 64 | 29 | 13.0 | 16.0 | 0.00 | 0.00 | 0.00 | 90 | 1016.7 |
| 20260905081108 | 64 | 29 | 13.0 | 16.0 | 0.00 | 0.00 | 0.00 | 89 | 1016.7 |
| 20260905080608 | 64 | 29 | 13.0 | 16.0 | 0.00 | 0.00 | 0.00 | 89 | 1016.8 |
| 20260905080057 | 64 | 29 | 13.0 | 16.0 | 0.00 | 0.00 | 0.00 | 88 | 1016.7 |
| 20260905075550 | 64 | 29 | 13.0 | 16.0 | 0.00 | 0.00 | 0.00 | 89 | 1016.6 |
| 20260905075044 | 64 | 29 | 13.0 | 16.0 | 0.00 | 0.00 | 0.00 | 89 | 1016.7 |
| 20260905074544 | 64 | 29 | 13.0 | 16.0 | 0.00 | 0.00 | 0.00 | 89 | 1016.7 |
| 20260905074040 | 64 | 29 | 13.0 | 16.0 | 0.00 | 0.00 | 0.00 | 89 | 1016.7 |
| 20260905073535 | 64 | 29 | 13.0 | 16.0 | 0.00 | 0.00 | 0.00 | 88 | 1016.7 |
| 20260905073031 | 64 | 29 | 13.0 | 16.0 | 0.00 | 0.00 | 0.00 | 87 | 1016.6 |
| 20260905072530 | 64 | 29 | 13.0 | 16.0 | 0.00 | 0.00 | 0.00 | 86 | 1016.5 |
| 20260905072026 | 65 | 29 | 13.0 | 16.0 | 0.00 | 0.00 | 0.00 | 86 | 1016.7 |
| 20260905071522 | 65 | 29 | 13.0 | 16.0 | 0.00 | 0.00 | 0.00 | 86 | 1016.7 |
| 20260905071017 | 65 | 29 | 13.0 | 16.0 | 0.00 | 0.00 | 0.00 | 85 | 1016.7 |
| 20260905070512 | 65 | 29 | 13.0 | 16.0 | 0.00 | 0.00 | 0.00 | 85 | 1016.8 |
| 20260905070008 | 65 | 29 | 13.0 | 16.0 | 0.00 | 0.00 | 0.00 | 84 | 1016.9 |
| 20260905065506 | 65 | 29 | 13.0 | 16.0 | 0.00 | 0.00 | 0.00 | 84 | 1017.0 |
| 20260905065001 | 65 | 29 | 13.0 | 16.0 | 0.00 | 0.00 | 0.00 | 84 | 1016.9 |
| 20260905064455 | 65 | 29 | 13.0 | 16.0 | 0.00 | 0.00 | 0.00 | 85 | 1016.9 |
| 20260905063950 | 65 | 29 | 13.0 | 16.0 | 0.00 | 0.00 | 0.00 | 85 | 1016.8 |
| 20260905063445 | 65 | 29 | 13.0 | 16.0 | 0.00 | 0.00 | 0.00 | 85 | 1017.0 |
| 20260905062941 | 65 | 29 | 13.0 | 16.0 | 0.00 | 0.00 | 0.00 | 85 | 1017.0 |
| 20260905062441 | 65 | 29 | 13.0 | 16.0 | 0.00 | 0.00 | 0.00 | 88 | 1017.1 |
| 20260905061936 | 65 | 29 | 13.0 | 16.0 | 0.00 | 0.00 | 0.00 | 90 | 1017.1 |
| 20260905061431 | 65 | 29 | 13.0 | 16.0 | 0.00 | 0.00 | 0.00 | 83 | 1017.1 |
| 20260905060930 | 65 | 29 | 13.0 | 16.0 | 0.00 | 0.00 | 0.00 | 85 | 1017.3 |
| 20260905060426 | 65 | 29 | 13.0 | 16.0 | 0.00 | 0.00 | 0.00 | 86 | 1017.3 |
| 20260905055926 | 66 | 29 | 13.0 | 16.0 | 0.00 | 0.00 | 0.00 | 86 | 1017.2 |
| 20260905055421 | 65 | 29 | 13.0 | 16.0 | 0.00 | 0.00 | 0.00 | 85 | 1017.4 |
| 20260905054920 | 66 | 29 | 13.0 | 16.0 | 0.00 | 0.00 | 0.00 | 84 | 1017.6 |
| 20260905054416 | 65 | 29 | 13.0 | 16.0 | 0.00 | 0.00 | 0.00 | 85 | 1017.4 |
| 20260905053915 | 66 | 29 | 13.0 | 16.0 | 0.00 | 0.00 | 0.00 | 89 | 1017.6 |
| 20260905053410 | 66 | 29 | 13.0 | 16.0 | 0.00 | 0.00 | 0.00 | 83 | 1017.5 |
| 20260905052906 | 66 | 29 | 13.0 | 16.0 | 0.00 | 0.00 | 0.00 | 84 | 1017.5 |
| 20260905052406 | 66 | 29 | 13.0 | 16.0 | 0.00 | 0.00 | 0.00 | 84 | 1017.6 |
| 20260905051905 | 66 | 29 | 13.0 | 16.0 | 0.00 | 0.00 | 0.00 | 85 | 1017.7 |
| 20260905051401 | 65 | 29 | 13.0 | 16.0 | 0.00 | 0.00 | 0.00 | 89 | 1017.7 |
| 20260905050858 | 64 | 29 | 13.0 | 16.0 | 0.00 | 0.00 | 0.00 | 89 | 1017.9 |
| 20260905050354 | 63 | 29 | 13.0 | 16.0 | 0.00 | 0.00 | 0.00 | 96 | 1017.9 |
| 20260905045849 | 63 | 29 | 13.0 | 16.0 | 0.00 | 0.00 | 0.00 | 97 | 1017.8 |
| 20260905045344 | 63 | 29 | 13.0 | 16.0 | 0.00 | 0.00 | 0.00 | 98 | 1017.9 |
| 20260905044839 | 63 | 29 | 13.0 | 16.0 | 0.00 | 0.00 | 0.00 | 97 | 1018.2 |
| 20260905044334 | 63 | 29 | 13.0 | 16.0 | 0.00 | 0.00 | 0.00 | 97 | 1018.1 |
| 20260905043833 | 63 | 29 | 13.0 | 16.0 | 0.00 | 0.00 | 0.00 | 96 | 1018.0 |
| 20260905043328 | 63 | 29 | 13.0 | 16.0 | 0.00 | 0.00 | 0.00 | 96 | 1018.0 |
| 20260905042822 | 63 | 29 | 13.0 | 16.0 | 0.00 | 0.00 | 0.00 | 95 | 1018.1 |
| 20260905042316 | 64 | 29 | 13.0 | 16.0 | 0.00 | 0.00 | 0.00 | 95 | 1018.1 |
| 20260905041812 | 64 | 29 | 13.0 | 16.0 | 0.00 | 0.00 | 0.00 | 94 | 1018.0 |
| 20260905041308 | 64 | 29 | 13.0 | 16.0 | 0.00 | 0.00 | 0.00 | 94 | 1018.1 |
| 20260905040803 | 64 | 29 | 13.0 | 16.0 | 0.00 | 0.00 | 0.00 | 96 | 1018.0 |
| 20260905040301 | 64 | 29 | 13.0 | 16.0 | 0.00 | 0.00 | 0.00 | 96 | 1018.1 |
| 20260905035756 | 64 | 29 | 13.0 | 16.0 | 0.00 | 0.27 | 0.27 | 96 | 1018.1 |
| 20260905035252 | 64 | 29 | 13.0 | 16.0 | 0.00 | 0.27 | 0.27 | 96 | 1018.0 |
| 20260905034749 | 64 | 29 | 13.0 | 16.0 | 0.00 | 0.27 | 0.27 | 96 | 1018.1 |
| 20260905034249 | 64 | 29 | 13.0 | 16.0 | 0.00 | 0.27 | 0.27 | 96 | 1018.0 |
| 20260905033747 | 64 | 29 | 13.0 | 16.0 | 0.00 | 0.27 | 0.27 | 96 | 1018.1 |
| 20260905033243 | 64 | 29 | 13.0 | 16.0 | 0.00 | 0.27 | 0.27 | 96 | 1017.9 |
| 20260905032742 | 64 | 29 | 13.0 | 16.0 | 0.00 | 0.27 | 0.27 | 96 | 1018.0 |
| 20260905032238 | 64 | 29 | 13.0 | 16.0 | 0.00 | 0.27 | 0.27 | 96 | 1018.0 |
| 20260905031732 | 65 | 29 | 13.0 | 16.0 | 0.00 | 0.27 | 0.27 | 96 | 1018.0 |
| 20260905031229 | 65 | 29 | 13.0 | 16.0 | 0.00 | 0.27 | 0.27 | 96 | 1017.9 |
| 20260905030723 | 65 | 29 | 13.0 | 16.0 | 0.00 | 0.27 | 0.27 | 96 | 1018.0 |
| 20260905030218 | 65 | 29 | 13.0 | 16.0 | 0.00 | 0.27 | 0.27 | 95 | 1018.0 |
| 20260905025713 | 65 | 29 | 13.0 | 16.0 | 0.00 | 0.27 | 0.27 | 95 | 1017.9 |
| 20260905025209 | 65 | 29 | 13.0 | 16.0 | 0.00 | 0.27 | 0.27 | 94 | 1017.9 |
| 20260905024704 | 66 | 29 | 13.0 | 16.0 | 0.00 | 0.27 | 0.27 | 94 | 1017.9 |
| 20260905024200 | 66 | 29 | 13.0 | 16.0 | 0.00 | 0.27 | 0.27 | 94 | 1018.0 |
| 20260905023654 | 65 | 29 | 13.0 | 16.0 | 0.00 | 0.27 | 0.27 | 93 | 1017.9 |
| 20260905023149 | 65 | 29 | 13.0 | 16.0 | 0.00 | 0.27 | 0.27 | 93 | 1017.8 |
| 20260905022648 | 65 | 29 | 13.0 | 16.0 | 0.00 | 0.27 | 0.27 | 95 | 1018.0 |
| 20260905022144 | 65 | 29 | 13.0 | 16.0 | 0.00 | 0.27 | 0.27 | 97 | 1018.0 |
| 20260905021643 | 65 | 29 | 13.0 | 16.0 | 0.00 | 0.27 | 0.27 | 97 | 1017.9 |
| 20260905021139 | 65 | 29 | 13.0 | 16.0 | 0.00 | 0.27 | 0.27 | 98 | 1017.9 |
| 20260905020633 | 65 | 29 | 13.0 | 16.0 | 0.00 | 0.27 | 0.27 | 98 | 1017.8 |
| 20260905020129 | 65 | 29 | 13.0 | 16.0 | 0.00 | 0.27 | 0.27 | 98 | 1017.8 |
| 20260905015627 | 65 | 29 | 13.0 | 16.0 | 0.00 | 0.27 | 0.27 | 97 | 1017.9 |
| 20260905015121 | 66 | 29 | 13.0 | 16.0 | 0.00 | 0.27 | 0.27 | 97 | 1017.7 |
| 20260905014615 | 66 | 29 | 13.0 | 16.0 | 0.00 | 0.27 | 0.27 | 97 | 1017.8 |
| 20260905014111 | 67 | 29 | 13.0 | 16.0 | 0.00 | 0.27 | 0.27 | 96 | 1017.9 |
| 20260905013608 | 67 | 29 | 13.0 | 16.0 | 0.00 | 0.27 | 0.27 | 95 | 1017.8 |
| 20260905013103 | 67 | 29 | 13.0 | 16.0 | 0.00 | 0.27 | 0.27 | 96 | 1017.9 |
| 20260905012603 | 67 | 29 | 13.0 | 16.0 | 0.00 | 0.27 | 0.27 | 96 | 1018.0 |
| 20260905012100 | 67 | 29 | 13.0 | 16.0 | 0.00 | 0.27 | 0.27 | 96 | 1018.0 |
| 20260905011555 | 67 | 29 | 13.0 | 16.0 | 0.00 | 0.27 | 0.27 | 96 | 1017.9 |
| 20260905011050 | 68 | 29 | 13.0 | 16.0 | 0.00 | 0.27 | 0.27 | 96 | 1017.9 |
| 20260905010550 | 68 | 29 | 13.0 | 16.0 | 0.00 | 0.27 | 0.27 | 95 | 1017.9 |
| 20260905010047 | 68 | 29 | 13.0 | 16.0 | 0.00 | 0.27 | 0.27 | 96 | 1017.8 |
| 20260905005542 | 68 | 29 | 13.0 | 16.0 | 0.00 | 0.27 | 0.27 | 96 | 1017.9 |
| 20260905005037 | 68 | 29 | 13.0 | 16.0 | 0.00 | 0.27 | 0.27 | 96 | 1018.2 |
| 20260905004532 | 68 | 29 | 13.0 | 16.0 | 0.00 | 0.27 | 0.27 | 96 | 1018.0 |
| 20260905004027 | 68 | 29 | 13.0 | 16.0 | 0.00 | 0.27 | 0.27 | 95 | 1017.9 |
| 20260905003523 | 68 | 29 | 13.0 | 16.0 | 0.00 | 0.27 | 0.27 | 95 | 1017.9 |
| 20260905003019 | 68 | 29 | 13.0 | 16.0 | 0.00 | 0.27 | 0.27 | 94 | 1017.8 |
| 20260905002514 | 68 | 29 | 13.0 | 16.0 | 0.00 | 0.27 | 0.27 | 94 | 1017.7 |
| 20260905002014 | 69 | 29 | 13.0 | 16.0 | 0.00 | 0.27 | 0.27 | 93 | 1017.7 |
| 20260905001509 | 69 | 29 | 13.0 | 16.0 | 0.00 | 0.27 | 0.27 | 93 | 1017.8 |
| 20260905001003 | 69 | 29 | 13.0 | 16.0 | 0.00 | 0.27 | 0.27 | 92 | 1017.9 |
| 20260905000459 | 69 | 29 | 13.0 | 16.0 | 0.00 | 0.27 | 0.27 | 92 | 1017.7 |
| 20260904235954 | 69 | 29 | 13.0 | 16.0 | 0.00 | 0.27 | 0.27 | 91 | 1017.7 |
| 20260904235449 | 69 | 29 | 13.0 | 16.0 | 0.00 | 0.27 | 0.27 | 91 | 1017.8 |
| 20260904234949 | 69 | 29 | 13.0 | 16.0 | 0.00 | 0.27 | 0.27 | 90 | 1017.6 |
| 20260904234449 | 70 | 29 | 13.0 | 16.0 | 0.00 | 0.27 | 0.27 | 90 | 1017.6 |
| 20260904233945 | 70 | 29 | 13.0 | 16.0 | 0.00 | 0.27 | 0.27 | 90 | 1017.4 |
| 20260904233440 | 70 | 29 | 13.0 | 16.0 | 0.00 | 0.27 | 0.27 | 89 | 1017.6 |
| 20260904232936 | 70 | 29 | 13.0 | 16.0 | 0.00 | 0.27 | 0.27 | 89 | 1017.5 |
| 20260904232432 | 70 | 29 | 13.0 | 16.0 | 0.00 | 0.27 | 0.27 | 89 | 1017.7 |
| 20260904231929 | 70 | 29 | 13.0 | 16.0 | 0.00 | 0.27 | 0.27 | 88 | 1017.4 |
| 20260904231423 | 71 | 29 | 13.0 | 16.0 | 0.00 | 0.27 | 0.27 | 87 | 1017.5 |
| 20260904230919 | 71 | 29 | 13.0 | 16.0 | 0.00 | 0.27 | 0.27 | 86 | 1017.5 |
| 20260904230417 | 71 | 29 | 13.0 | 16.0 | 0.00 | 0.27 | 0.27 | 85 | 1017.6 |
| 20260904225912 | 71 | 29 | 13.0 | 16.0 | 0.00 | 0.27 | 0.27 | 82 | 1017.6 |
| 20260904225410 | 71 | 29 | 13.0 | 16.0 | 0.00 | 0.27 | 0.27 | 82 | 1017.5 |
| 20260904224905 | 72 | 29 | 13.0 | 16.0 | 0.00 | 0.27 | 0.27 | 84 | 1017.6 |
| 20260904224401 | 73 | 29 | 13.0 | 16.0 | 0.00 | 0.27 | 0.27 | 81 | 1017.5 |
| 20260904223900 | 73 | 29 | 13.0 | 16.0 | 0.00 | 0.27 | 0.27 | 80 | 1017.5 |
| 20260904223359 | 73 | 29 | 13.0 | 16.0 | 0.00 | 0.27 | 0.27 | 80 | 1017.6 |
| 20260904222856 | 73 | 29 | 13.0 | 16.0 | 0.00 | 0.27 | 0.27 | 81 | 1017.6 |
| 20260904222356 | 74 | 29 | 13.0 | 16.0 | 0.00 | 0.27 | 0.27 | 79 | 1017.3 |
| 20260904221856 | 74 | 29 | 13.0 | 16.0 | 0.00 | 0.27 | 0.27 | 77 | 1017.4 |
| 20260904221351 | 74 | 29 | 13.0 | 16.0 | 0.00 | 0.27 | 0.27 | 77 | 1017.5 |
| 20260904220846 | 74 | 29 | 13.0 | 16.0 | 0.00 | 0.27 | 0.27 | 76 | 1017.4 |
| 20260904220345 | 74 | 29 | 13.0 | 16.0 | 0.00 | 0.27 | 0.27 | 76 | 1017.5 |
| 20260904215841 | 76 | 29 | 13.0 | 16.0 | 0.00 | 0.27 | 0.27 | 73 | 1017.2 |
| 20260904215336 | 78 | 29 | 13.0 | 16.0 | 0.00 | 0.27 | 0.27 | 70 | 1017.6 |
| 20260904214832 | 78 | 29 | 13.0 | 16.0 | 0.00 | 0.27 | 0.27 | 67 | 1017.3 |
| 20260904214328 | 79 | 29 | 13.0 | 16.0 | 0.00 | 0.27 | 0.27 | 70 | 1017.5 |
| 20260904213826 | 80 | 29 | 13.0 | 16.0 | 0.00 | 0.27 | 0.27 | 68 | 1017.3 |
| 20260904213321 | 80 | 29 | 13.0 | 16.0 | 0.00 | 0.27 | 0.27 | 65 | 1017.4 |
| 20260904212817 | 82 | 29 | 13.0 | 16.0 | 0.00 | 0.27 | 0.27 | 61 | 1017.3 |
| 20260904212317 | 83 | 29 | 13.0 | 16.0 | 0.00 | 0.27 | 0.27 | 59 | 1017.2 |
| 20260904211813 | 84 | 29 | 13.0 | 16.0 | 0.00 | 0.27 | 0.27 | 62 | 1017.4 |
| 20260904211307 | 84 | 29 | 13.0 | 16.0 | 0.00 | 0.27 | 0.27 | 58 | 1017.4 |
| 20260904210802 | 84 | 29 | 13.0 | 16.0 | 0.00 | 0.27 | 0.27 | 59 | 1017.3 |
| 20260904210256 | 82 | 29 | 13.0 | 16.0 | 0.00 | 0.27 | 0.27 | 59 | 1017.3 |
| 20260904205752 | 82 | 29 | 13.0 | 16.0 | 0.00 | 0.27 | 0.27 | 58 | 1017.4 |
| 20260904205248 | 80 | 29 | 13.0 | 16.0 | 0.00 | 0.27 | 0.27 | 57 | 1017.6 |
| 20260904204745 | 84 | 29 | 13.0 | 16.0 | 0.00 | 0.27 | 0.27 | 57 | 1017.5 |
| 20260904204240 | 83 | 29 | 13.0 | 16.0 | 0.00 | 0.27 | 0.27 | 57 | 1017.5 |
| 20260904203736 | 83 | 29 | 13.0 | 16.0 | 0.00 | 0.27 | 0.27 | 57 | 1017.5 |
| 20260904203232 | 83 | 29 | 13.0 | 16.0 | 0.00 | 0.27 | 0.27 | 57 | 1017.6 |
| 20260904202728 | 84 | 29 | 13.0 | 16.0 | 0.00 | 0.27 | 0.27 | 55 | 1017.5 |
| 20260904202224 | 83 | 29 | 13.0 | 16.0 | 0.00 | 0.27 | 0.27 | 57 | 1017.8 |
| 20260904201720 | 82 | 29 | 13.0 | 16.0 | 0.00 | 0.27 | 0.27 | 59 | 1017.7 |
| 20260904201219 | 82 | 29 | 13.0 | 16.0 | 0.00 | 0.27 | 0.27 | 58 | 1017.6 |
| 20260904200714 | 82 | 29 | 13.0 | 16.0 | 0.00 | 0.27 | 0.27 | 58 | 1017.5 |
| 20260904200209 | 82 | 29 | 13.0 | 16.0 | 0.00 | 0.27 | 0.27 | 60 | 1017.6 |
| 20260904195708 | 80 | 29 | 13.0 | 16.0 | 0.00 | 0.27 | 0.27 | 57 | 1017.8 |
| 20260904195201 | 82 | 29 | 13.0 | 16.0 | 0.00 | 0.27 | 0.27 | 58 | 1017.6 |
| 20260904194656 | 82 | 29 | 13.0 | 16.0 | 0.00 | 0.27 | 0.27 | 55 | 1017.6 |
| 20260904194155 | 84 | 29 | 13.0 | 16.0 | 0.00 | 0.27 | 0.27 | 57 | 1017.5 |
| 20260904193650 | 82 | 29 | 13.0 | 16.0 | 0.00 | 0.27 | 0.27 | 60 | 1017.7 |
| 20260904193142 | 81 | 29 | 13.0 | 16.0 | 0.00 | 0.27 | 0.27 | 59 | 1017.7 |
| 20260904192641 | 82 | 29 | 13.0 | 16.0 | 0.00 | 0.27 | 0.27 | 57 | 1017.8 |
| 20260904192136 | 83 | 29 | 13.0 | 16.0 | 0.00 | 0.27 | 0.27 | 56 | 1017.8 |
| 20260904191633 | 82 | 29 | 13.0 | 16.0 | 0.00 | 0.27 | 0.27 | 58 | 1017.8 |
| 20260904191129 | 81 | 29 | 13.0 | 16.0 | 0.00 | 0.27 | 0.27 | 59 | 1018.1 |
| 20260904190625 | 83 | 29 | 13.0 | 16.0 | 0.00 | 0.27 | 0.27 | 57 | 1017.9 |
| 20260904190121 | 82 | 29 | 13.0 | 16.0 | 0.00 | 0.27 | 0.27 | 57 | 1018.0 |
| 20260904185618 | 82 | 29 | 13.0 | 16.0 | 0.00 | 0.27 | 0.27 | 59 | 1018.2 |
| 20260904185117 | 80 | 29 | 13.0 | 16.0 | 0.00 | 0.27 | 0.27 | 62 | 1018.2 |
| 20260904184611 | 81 | 29 | 13.0 | 16.0 | 0.00 | 0.27 | 0.27 | 58 | 1018.1 |
| 20260904184106 | 81 | 29 | 13.0 | 16.0 | 0.00 | 0.27 | 0.27 | 59 | 1018.2 |
| 20260904183602 | 82 | 29 | 13.0 | 16.0 | 0.00 | 0.27 | 0.27 | 65 | 1018.3 |
| 20260904183056 | 80 | 29 | 13.0 | 16.0 | 0.00 | 0.27 | 0.27 | 64 | 1018.2 |
| 20260904182552 | 80 | 29 | 13.0 | 16.0 | 0.00 | 0.27 | 0.27 | 59 | 1018.1 |
| 20260904182046 | 80 | 29 | 13.0 | 16.0 | 0.00 | 0.27 | 0.27 | 63 | 1018.2 |
| 20260904181542 | 81 | 29 | 13.0 | 16.0 | 0.00 | 0.27 | 0.27 | 65 | 1018.1 |
| 20260904181042 | 81 | 29 | 13.0 | 16.0 | 0.00 | 0.27 | 0.27 | 64 | 1018.0 |
| 20260904180536 | 81 | 29 | 13.0 | 16.0 | 0.00 | 0.27 | 0.27 | 61 | 1018.0 |
| 20260904180032 | 80 | 29 | 13.0 | 16.0 | 0.00 | 0.27 | 0.27 | 63 | 1018.0 |
| 20260904175532 | 78 | 29 | 13.0 | 16.0 | 0.00 | 0.27 | 0.27 | 66 | 1018.3 |
| 20260904175030 | 81 | 29 | 13.0 | 16.0 | 0.00 | 0.27 | 0.27 | 68 | 1018.2 |
| 20260904174525 | 79 | 29 | 13.0 | 16.0 | 0.00 | 0.27 | 0.27 | 62 | 1018.2 |
| 20260904174022 | 80 | 29 | 13.0 | 16.0 | 0.00 | 0.27 | 0.27 | 61 | 1018.2 |
| 20260904173516 | 79 | 29 | 13.0 | 16.0 | 0.00 | 0.27 | 0.27 | 61 | 1018.0 |
| 20260904173012 | 79 | 29 | 13.0 | 16.0 | 0.00 | 0.27 | 0.27 | 63 | 1018.0 |
| 20260904172508 | 78 | 29 | 13.0 | 16.0 | 0.00 | 0.27 | 0.27 | 61 | 1018.0 |
| 20260904172006 | 79 | 29 | 13.0 | 16.0 | 0.00 | 0.27 | 0.27 | 65 | 1018.0 |
| 20260904171502 | 80 | 29 | 13.0 | 16.0 | 0.00 | 0.27 | 0.27 | 64 | 1018.0 |
| 20260904170958 | 78 | 29 | 13.0 | 16.0 | 0.00 | 0.27 | 0.27 | 62 | 1018.1 |
| 20260904170453 | 80 | 29 | 13.0 | 16.0 | 0.00 | 0.27 | 0.27 | 63 | 1018.2 |
| 20260904165949 | 78 | 29 | 13.0 | 16.0 | 0.00 | 0.27 | 0.27 | 65 | 1018.2 |
| 20260904165448 | 78 | 29 | 13.0 | 16.0 | 0.00 | 0.27 | 0.27 | 64 | 1018.1 |
| 20260904164947 | 79 | 29 | 13.0 | 16.0 | 0.00 | 0.27 | 0.27 | 71 | 1018.3 |
| 20260904164442 | 78 | 29 | 13.0 | 16.0 | 0.00 | 0.27 | 0.27 | 67 | 1018.4 |
| 20260904163938 | 80 | 29 | 13.0 | 16.0 | 0.00 | 0.27 | 0.27 | 64 | 1018.2 |
| 20260904163437 | 79 | 29 | 13.0 | 16.0 | 0.00 | 0.27 | 0.27 | 63 | 1018.4 |
| 20260904162937 | 78 | 29 | 13.0 | 16.0 | 0.00 | 0.27 | 0.27 | 69 | 1018.2 |
| 20260904162433 | 79 | 29 | 13.0 | 16.0 | 0.00 | 0.27 | 0.27 | 70 | 1018.0 |
| 20260904161928 | 79 | 29 | 13.0 | 16.0 | 0.00 | 0.27 | 0.27 | 68 | 1018.2 |
| 20260904161423 | 78 | 29 | 13.0 | 16.0 | 0.00 | 0.27 | 0.27 | 66 | 1018.3 |
| 20260904160914 | 78 | 29 | 13.0 | 16.0 | 0.00 | 0.27 | 0.27 | 64 | 1018.4 |
| 20260904160408 | 78 | 29 | 13.0 | 16.0 | 0.00 | 0.27 | 0.27 | 66 | 1018.5 |
| 20260904155858 | 77 | 29 | 13.0 | 16.0 | 0.00 | 0.27 | 0.27 | 69 | 1018.4 |
| 20260904155357 | 78 | 29 | 13.0 | 16.0 | 0.00 | 0.27 | 0.27 | 74 | 1018.5 |